This is the latest recevied weather packets stored in our database for station/object LZ1NAG-10. If no packets are shown the sender has not sent any weather packets the latest 10 day(s).
| Time | Temp. | Humidity | Pressure | Rain* | Wind** | Luminosity | Snow |
|---|---|---|---|---|---|---|---|
| 1778222058 | 19.44° C | 48% | 1021 hPa | - | - | - | - |
| 1778221158 | 20° C | 46% | 1021.1 hPa | - | - | - | - |
| 1778220258 | 18.89° C | 47% | 1021.4 hPa | - | - | - | - |
| 1778219357 | 15.56° C | 50% | 1021.5 hPa | - | - | - | - |
| 1778218457 | 14.44° C | 50% | 1021.6 hPa | - | - | - | - |
| 1778217557 | 12.78° C | 51% | 1021.7 hPa | - | - | - | - |
| 1778216657 | 12.22° C | 51% | 1021.6 hPa | - | - | - | - |
| 1778215757 | 12.22° C | 51% | 1021.5 hPa | - | - | - | - |
| 1778214856 | 11.67° C | 51% | 1021.5 hPa | - | - | - | - |
| 1778213953 | 11.11° C | 51% | 1021.5 hPa | - | - | - | - |
| 1778213053 | 10.56° C | 52% | 1021.5 hPa | - | - | - | - |
| 1778212152 | 10° C | 52% | 1021.4 hPa | - | - | - | - |
| 1778211252 | 9.44° C | 52% | 1021.3 hPa | - | - | - | - |
| 1778210352 | 9.44° C | 52% | 1021.4 hPa | - | - | - | - |
| 1778209452 | 8.89° C | 52% | 1021.2 hPa | - | - | - | - |
| 1778208552 | 8.89° C | 52% | 1021.4 hPa | - | - | - | - |
| 1778207652 | 8.89° C | 52% | 1021.3 hPa | - | - | - | - |
| 1778206751 | 8.33° C | 53% | 1021.5 hPa | - | - | - | - |
| 1778205851 | 7.78° C | 53% | 1021.5 hPa | - | - | - | - |
| 1778204951 | 7.78° C | 53% | 1021.3 hPa | - | - | - | - |
| 1778204051 | 8.33° C | 53% | 1021.3 hPa | - | - | - | - |
| 1778203150 | 8.33° C | 52% | 1021.6 hPa | - | - | - | - |
| 1778202250 | 9.44° C | 52% | 1021.4 hPa | - | - | - | - |
| 1778201350 | 8.89° C | 52% | 1021.4 hPa | - | - | - | - |
| 1778200453 | 8.89° C | 53% | 1021.8 hPa | - | - | - | - |
* Rain since midnight (hover to see other rain measurements)
** Current wind speed in m/s (hover to see current wind gust speed)